Weather History for Swansboro, NC

Change the Weather History Date:

Saturday, November 17, 2012

  Actual Average (KNKT) Record (KNKT)
Temperature  
Mean Temperature 48 °F -  
Max Temperature 57 °F 62 °F 77 °F (2003)
Min Temperature 39 °F 42 °F 28 °F (2007)
Degree Days  
Heating Degree Days 17    
Moisture  
Dew Point 43 °F    
Average Humidity 77    
Maximum Humidity 89    
Minimum Humidity 67    
Precipitation  
Precipitation 0.00 in - - ()
Sea Level Pressure  
Sea Level Pressure 30.36 in    
Wind  
Wind Speed 10 mph (NNE)    
Max Wind Speed 17 mph    
Max Gust Speed 29 mph    
Visibility 10 miles    
Events      
Averages and records for this station are not official NWS values.
T = Trace of Precipitation, MM = Missing Value Source: NWS Daily Summary

Daily Weather History Graph

Daily Weather History Graph

Search for Another Location

Airport:

Trip Planner

Search our weather history database for the weather conditions in past years. The results will help you decide how hot, cold, wet, or windy it might be!

Date:

Astronomy

Nov. 17, 2012 Rise Set
Actual Time 6:44 AM EST 5:01 PM EST
Civil Twilight 6:17 AM EST 5:28 PM EST
Nautical Twilight 5:46 AM EST 5:59 PM EST
Astronomical Twilight 5:16 AM EST 6:29 PM EST
Moon 10:27 AM EST (11/17) 9:08 PM EST (11/17)
Length of Visible Light 11h 11m
Length of Day
10h 17m
Waxing Crescent, 20% of the Moon is Illuminated
Nov 17
Waxing Crescent
Nov 20
First Quarter
Nov 28
Full
Dec 6
Last Quarter
Dec 13
New

Hourly Weather History & Observations

Time (EST) Temp. Windchill Dew Point Humidity Pressure Visibility Wind Dir Wind Speed Gust Speed Precip Events Conditions
12:57 AM 42.1 °F 39.2 °F 36.0 °F 79% 30.35 in 10.0 mi North 4.6 mph - N/A   Clear
1:57 AM 41.0 °F 37.1 °F 36.0 °F 82% 30.36 in 10.0 mi NNW 5.8 mph - N/A   Clear
2:57 AM 39.9 °F 36.7 °F 37.0 °F 89% 30.35 in 10.0 mi North 4.6 mph - N/A   Clear
3:57 AM 41.0 °F 37.1 °F 37.0 °F 86% 30.35 in 10.0 mi North 5.8 mph - N/A   Clear
5:57 AM 43.0 °F 38.2 °F 37.9 °F 82% 30.35 in 10.0 mi North 8.1 mph - N/A   Scattered Clouds
6:04 AM 42.8 °F 38.0 °F 37.4 °F 81% 30.34 in 10.0 mi North 8.1 mph - N/A   Mostly Cloudy
6:57 AM 44.1 °F 38.1 °F 37.9 °F 79% 30.36 in 10.0 mi North 11.5 mph - N/A   Scattered Clouds
7:57 AM 45.0 °F 39.7 °F 39.0 °F 80% 30.38 in 10.0 mi North 10.4 mph 17.3 mph N/A   Clear
8:57 AM 50.0 °F - 42.1 °F 74% 30.38 in 10.0 mi North 15.0 mph 21.9 mph N/A   Clear
9:32 AM 51.8 °F - 42.8 °F 71% 30.37 in 10.0 mi NNE 13.8 mph 24.2 mph N/A   Partly Cloudy
9:57 AM 53.1 °F - 44.1 °F 71% 30.38 in 10.0 mi NNE 12.7 mph 24.2 mph N/A   Clear
10:57 AM 57.0 °F - 46.0 °F 67% 30.37 in 10.0 mi North 12.7 mph 24.2 mph N/A   Clear
11:57 AM 57.0 °F - 46.0 °F 67% 30.36 in 10.0 mi North 16.1 mph 23.0 mph N/A   Partly Cloudy
12:57 PM 57.9 °F - 46.9 °F 67% 30.36 in 10.0 mi NNE 13.8 mph - N/A   Partly Cloudy
1:57 PM 57.0 °F - 46.9 °F 69% 30.35 in 10.0 mi NNE 15.0 mph 20.7 mph N/A   Clear
2:57 PM 57.0 °F - 46.9 °F 69% 30.37 in 10.0 mi NNE 12.7 mph 20.7 mph N/A   Partly Cloudy
3:57 PM 55.9 °F - 46.9 °F 72% 30.38 in 10.0 mi NNE 13.8 mph 21.9 mph N/A   Clear
4:57 PM 55.0 °F - 46.0 °F 72% 30.38 in 10.0 mi NNE 17.3 mph 25.3 mph N/A   Partly Cloudy
5:57 PM 53.1 °F - 46.0 °F 77% 30.39 in 10.0 mi NNE 10.4 mph 20.7 mph N/A   Clear
6:57 PM 52.0 °F - 46.0 °F 80% 30.37 in 10.0 mi North 16.1 mph 26.5 mph N/A   Clear
7:57 PM 52.0 °F - 46.9 °F 83% 30.37 in 10.0 mi NNE 13.8 mph 23.0 mph N/A   Clear
8:57 PM 52.0 °F - 46.9 °F 83% 30.37 in 10.0 mi NNE 15.0 mph 25.3 mph N/A   Clear
9:57 PM 52.0 °F - 46.0 °F 80% 30.34 in 10.0 mi NNE 13.8 mph 23.0 mph N/A   Clear
10:57 PM 52.0 °F - 46.9 °F 83% 30.35 in 10.0 mi NNE 15.0 mph 28.8 mph N/A   Overcast
11:57 PM 53.1 °F - 46.9 °F 80% 30.34 in 10.0 mi North 13.8 mph 25.3 mph N/A   Overcast